When you browse on this site, cookies collect data to enhance your experience and personalize the content and advertising you see.
Visit our Privacy Policy to learn more. By continuing to use the site, you agree to this use of cookies and data.
  • în România
  • Lista ţărilor
  • Pe 7 zile
  • Temperatura apei
  • Hartă satelitară
  • Meteo pe hartă
  • Widget-uri
  • user-avatar
    Intrare

    Meteo pe oră la Shatry

    Astăzi, 21 Iulie, Duminică

    Timp Temperatura Precipitaţii Vânt Presiune Umiditate
    00:00 +14°C° 0 mm 1 m/s 745 mmHg 98%
    01:00 +13°C° 0 mm 1 m/s 746 mmHg 98%
    02:00 +13°C° 0 mm 1 m/s 746 mmHg 98%
    03:00 +13°C° 0 mm 1 m/s 746 mmHg 98%
    04:00 +13°C° 0 mm 1 m/s 746 mmHg 98%
    05:00 +14°C° 0 mm 1 m/s 747 mmHg 98%
    06:00 +15°C° 0 mm 1 m/s 747 mmHg 93%
    07:00 +18°C° 0 mm 1 m/s 747 mmHg 88%
    08:00 +20°C° 0 mm 1 m/s 747 mmHg 82%
    09:00 +21°C° 0.1 mm 1 m/s 747 mmHg 77%
    10:00 +22°C° 0.1 mm 1 m/s 747 mmHg 71%
    11:00 +23°C° 0.1 mm 1 m/s 747 mmHg 65%
    12:00 +24°C° 0.5 mm 1 m/s 747 mmHg 64%
    13:00 +24°C° 0.5 mm 1 m/s 747 mmHg 64%
    14:00 +25°C° 0.5 mm 1 m/s 746 mmHg 63%
    15:00 +24°C° 0.6 mm 1 m/s 746 mmHg 69%
    16:00 +24°C° 0.6 mm 1 m/s 746 mmHg 74%
    17:00 +23°C° 0.6 mm 1 m/s 746 mmHg 79%
    18:00 +22°C° 0.2 mm 1 m/s 746 mmHg 83%
    19:00 +20°C° 0.2 mm 1 m/s 746 mmHg 87%
    20:00 +18°C° 0.2 mm 1 m/s 746 mmHg 90%
    21:00 +16°C° 0 mm 0 m/s 746 mmHg 91%
    22:00 +15°C° 0 mm 0 m/s 746 mmHg 92%
    23:00 +14°C° 0 mm 0 m/s 746 mmHg 93%

    Mâine, 22 Iulie, Luni

    Timp Temperatura Precipitaţii Vânt Presiune Umiditate
    00:00 +13°C° 0 mm 0 m/s 746 mmHg 93%
    01:00 +13°C° 0 mm 0 m/s 746 mmHg 93%
    02:00 +13°C° 0 mm 0 m/s 746 mmHg 94%
    03:00 +13°C° 0 mm 0 m/s 746 mmHg 94%
    04:00 +13°C° 0 mm 0 m/s 746 mmHg 94%
    05:00 +13°C° 0 mm 0 m/s 746 mmHg 94%
    06:00 +15°C° 0 mm 0 m/s 746 mmHg 89%
    07:00 +17°C° 0 mm 0 m/s 745 mmHg 84%
    08:00 +19°C° 0 mm 0 m/s 745 mmHg 79%
    09:00 +21°C° 0 mm 0 m/s 745 mmHg 71%
    10:00 +22°C° 0 mm 0 m/s 745 mmHg 62%
    11:00 +24°C° 0 mm 0 m/s 745 mmHg 54%
    12:00 +24°C° 0 mm 0 m/s 745 mmHg 52%
    13:00 +24°C° 0 mm 0 m/s 745 mmHg 50%
    14:00 +24°C° 0 mm 0 m/s 744 mmHg 48%
    15:00 +26°C° 0 mm 1 m/s 744 mmHg 52%
    16:00 +25°C° 0 mm 1 m/s 744 mmHg 56%
    17:00 +25°C° 0 mm 1 m/s 744 mmHg 60%
    18:00 +23°C° 0 mm 1 m/s 744 mmHg 69%
    19:00 +21°C° 0 mm 1 m/s 744 mmHg 77%
    20:00 +19°C° 0 mm 1 m/s 744 mmHg 86%
    21:00 +19°C° 0 mm 1 m/s 744 mmHg 87%
    22:00 +18°C° 0 mm 1 m/s 744 mmHg 89%
    23:00 +18°C° 0 mm 1 m/s 744 mmHg 90%

    Poimâine, 23 Iulie, Marţi

    Timp Temperatura Precipitaţii Vânt Presiune Umiditate
    00:00 +16°C° 0 mm 1 m/s 744 mmHg 92%
    01:00 +16°C° 0 mm 1 m/s 744 mmHg 93%
    02:00 +15°C° 0 mm 1 m/s 743 mmHg 94%
    03:00 +15°C° 0 mm 1 m/s 744 mmHg 94%
    04:00 +15°C° 0 mm 1 m/s 744 mmHg 93%
    05:00 +15°C° 0 mm 1 m/s 744 mmHg 93%
    06:00 +18°C° 0.1 mm 1 m/s 744 mmHg 88%
    07:00 +20°C° 0.1 mm 1 m/s 744 mmHg 84%
    08:00 +20°C° 0.1 mm 2 m/s 744 mmHg 79%
    09:00 +21°C° 0.9 mm 2 m/s 744 mmHg 78%
    10:00 +21°C° 0.9 mm 2 m/s 744 mmHg 77%
    11:00 +23°C° 0.9 mm 2 m/s 744 mmHg 76%
    12:00 +24°C° 0.6 mm 2 m/s 744 mmHg 73%
    13:00 +24°C° 0.6 mm 2 m/s 744 mmHg 69%
    14:00 +24°C° 0.6 mm 2 m/s 744 mmHg 66%
    15:00 +24°C° 0.6 mm 2 m/s 744 mmHg 70%
    16:00 +24°C° 0.6 mm 2 m/s 744 mmHg 74%
    17:00 +23°C° 0.6 mm 1 m/s 744 mmHg 77%
    18:00 +22°C° 0.3 mm 1 m/s 744 mmHg 81%
    19:00 +20°C° 0.3 mm 1 m/s 744 mmHg 85%
    20:00 +19°C° 0.3 mm 1 m/s 744 mmHg 88%
    21:00 +18°C° 0 mm 1 m/s 744 mmHg 89%
    22:00 +16°C° 0 mm 1 m/s 745 mmHg 90%
    23:00 +16°C° 0 mm 1 m/s 745 mmHg 91%

    24 Iulie, Miercuri

    Timp Temperatura Precipitaţii Vânt Presiune Umiditate
    00:00 +15°C° 0 mm 1 m/s 745 mmHg 91%
    01:00 +15°C° 0 mm 1 m/s 745 mmHg 92%
    02:00 +14°C° 0 mm 1 m/s 745 mmHg 93%
    03:00 +14°C° 0 mm 1 m/s 745 mmHg 93%
    04:00 +15°C° 0 mm 1 m/s 745 mmHg 93%
    05:00 +15°C° 0 mm 1 m/s 745 mmHg 93%
    06:00 +16°C° 0 mm 1 m/s 746 mmHg 87%
    07:00 +19°C° 0 mm 1 m/s 746 mmHg 81%
    08:00 +21°C° 0 mm 1 m/s 746 mmHg 75%
    09:00 +21°C° 0 mm 2 m/s 746 mmHg 65%
    10:00 +24°C° 0 mm 2 m/s 746 mmHg 54%
    11:00 +26°C° 0 mm 2 m/s 746 mmHg 44%
    12:00 +26°C° 0 mm 2 m/s 746 mmHg 43%
    13:00 +26°C° 0 mm 3 m/s 746 mmHg 43%
    14:00 +26°C° 0 mm 3 m/s 746 mmHg 42%
    15:00 +26°C° 0 mm 3 m/s 746 mmHg 45%
    16:00 +26°C° 0 mm 2 m/s 746 mmHg 48%
    17:00 +25°C° 0 mm 2 m/s 746 mmHg 51%
    18:00 +23°C° 0 mm 2 m/s 746 mmHg 59%
    19:00 +21°C° 0 mm 1 m/s 746 mmHg 68%
    20:00 +19°C° 0 mm 1 m/s 746 mmHg 77%
    21:00 +18°C° 0 mm 1 m/s 747 mmHg 79%
    22:00 +15°C° 0 mm 0 m/s 747 mmHg 81%
    23:00 +14°C° 0 mm 0 m/s 747 mmHg 83%

    25 Iulie, Joi

    Timp Temperatura Precipitaţii Vânt Presiune Umiditate
    00:00 +14°C° 0 mm 0 m/s 747 mmHg 84%
    01:00 +14°C° 0 mm 0 m/s 747 mmHg 85%
    02:00 +13°C° 0 mm 0 m/s 747 mmHg 86%
    03:00 +14°C° 0 mm 0 m/s 747 mmHg 86%
    04:00 +14°C° 0 mm 0 m/s 748 mmHg 86%
    05:00 +14°C° 0 mm 0 m/s 748 mmHg 86%
    06:00 +18°C° 0 mm 1 m/s 748 mmHg 79%
    07:00 +20°C° 0 mm 1 m/s 748 mmHg 71%
    08:00 +22°C° 0 mm 1 m/s 748 mmHg 64%
    09:00 +23°C° 0 mm 1 m/s 748 mmHg 58%
    10:00 +25°C° 0 mm 1 m/s 748 mmHg 51%
    11:00 +26°C° 0 mm 2 m/s 748 mmHg 44%
    12:00 +27°C° 0 mm 2 m/s 748 mmHg 44%
    13:00 +27°C° 0 mm 2 m/s 748 mmHg 43%
    14:00 +28°C° 0 mm 2 m/s 748 mmHg 43%
    15:00 +27°C° 0 mm 2 m/s 748 mmHg 47%
    16:00 +27°C° 0 mm 2 m/s 748 mmHg 50%
    17:00 +27°C° 0 mm 2 m/s 748 mmHg 54%
    18:00 +25°C° 0 mm 2 m/s 748 mmHg 63%
    19:00 +23°C° 0 mm 2 m/s 748 mmHg 71%
    20:00 +21°C° 0 mm 1 m/s 748 mmHg 80%
    21:00 +20°C° 0 mm 1 m/s 748 mmHg 84%
    22:00 +19°C° 0 mm 1 m/s 748 mmHg 89%
    23:00 +18°C° 0 mm 1 m/s 748 mmHg 94%

    26 Iulie, Vineri

    Timp Temperatura Precipitaţii Vânt Presiune Umiditate
    00:00 +18°C° 0 mm 1 m/s 748 mmHg 95%
    01:00 +16°C° 0 mm 2 m/s 748 mmHg 96%
    02:00 +16°C° 0 mm 2 m/s 748 mmHg 97%
    03:00 +16°C° 0 mm 2 m/s 748 mmHg 95%
    04:00 +15°C° 0 mm 2 m/s 748 mmHg 93%
    05:00 +15°C° 0 mm 2 m/s 748 mmHg 91%
    06:00 +17°C° 0 mm 2 m/s 749 mmHg 81%
    07:00 +18°C° 0 mm 3 m/s 749 mmHg 71%
    08:00 +20°C° 0 mm 3 m/s 749 mmHg 61%
    09:00 +21°C° 0 mm 3 m/s 749 mmHg 57%
    10:00 +22°C° 0 mm 3 m/s 749 mmHg 53%
    11:00 +25°C° 0 mm 3 m/s 749 mmHg 49%
    12:00 +25°C° 0 mm 3 m/s 748 mmHg 48%
    13:00 +25°C° 0 mm 3 m/s 748 mmHg 48%
    14:00 +25°C° 0 mm 3 m/s 748 mmHg 48%
    15:00 +25°C° 0 mm 3 m/s 748 mmHg 50%
    16:00 +24°C° 0 mm 3 m/s 747 mmHg 53%
    17:00 +24°C° 0 mm 3 m/s 747 mmHg 56%
    18:00 +21°C° 0 mm 3 m/s 747 mmHg 64%
    19:00 +19°C° 0 mm 2 m/s 747 mmHg 72%
    20:00 +17°C° 0 mm 2 m/s 747 mmHg 80%
    21:00 +16°C° 0 mm 2 m/s 747 mmHg 81%
    22:00 +16°C° 0 mm 2 m/s 747 mmHg 83%
    23:00 +15°C° 0 mm 2 m/s 747 mmHg 84%
    Arată mai mult